Flag for U.S.A. Weather past 2 weeks in Providence, Rhode Island, U.S.A.

Now
73 °F

Passing clouds.


Feels Like: 77 °F
Forecast: 46 / 73 °F
Wind: 10 mph from North

Location: Green State Airport

Current Time: Sep 18, 2014 at 6:28:57 PM

Latest Report: Sep 18, 2014 at 5:51 PM


Visibility: 10 mi

Pressure: 29.98 "Hg

Humidity: 38%

Dew point: 46 °F

Location of ProvidenceLocation

Historic Weather in Providence — Graph

°F

Providence temperature yesterday

Maximum temperature yesterday: 71 °F (at 12:51 PM)
Minimum temperature yesterday: 48 °F (at 6:51 AM)
Average temperature yesterday: 61 °F

Past Weeks' High & Low Weather Summary

 TemperatureHumidityPressure
High89 °F (Sep 6, 2:51 PM)97% (Sep 5, 5:51 AM)30.36 "Hg (Sep 5, 5:51 AM)
Low48 °F (Sep 15, 6:51 AM)33% (Sep 4, 3:51 PM)29.79 "Hg (Sep 6, 4:51 PM)
Average67 °F69%30.10 "Hg
* Reported Sep 3 4:51 PM — Sep 18 4:51 PM, Providence, Weather by CustomWeather, © 2014

Note: Actual official high and low records may vary slightly from our data, if they occured in-between our weather recording intervals... More about our weather records

Advertising

Providence weather history for previous 24 hours

 ConditionsComfort  
Time TempWeatherWind HumidityBarometerVisibility
4:51 PM
Sep 18
75 °FPassing clouds.10 mph34%29.96 "Hg10 mi
3:51 PM75 °FPassing clouds.14 mph36%29.96 "Hg10 mi
2:51 PM76 °FBroken clouds.8 mph33%29.95 "Hg10 mi
1:51 PM76 °FPassing clouds.7 mph33%29.96 "Hg10 mi
12:51 PM74 °FPassing clouds.7 mph35%29.97 "Hg10 mi
11:51 AM72 °FPassing clouds.7 mph38%29.98 "Hg10 mi
10:51 AM70 °FPassing clouds.12 mph42%29.98 "Hg10 mi
9:51 AM69 °FPassing clouds.8 mph44%29.99 "Hg10 mi
8:51 AM61 °FPassing clouds.No wind62%29.99 "Hg10 mi
7:51 AM54 °FPassing clouds.5 mph77%29.99 "Hg10 mi
6:51 AM49 °FPassing clouds.No wind86%29.97 "Hg10 mi
5:51 AM51 °FPassing clouds.3 mph83%29.97 "Hg10 mi
4:51 AM50 °FClear.3 mph86%29.96 "Hg10 mi
3:51 AM50 °FClear.5 mph86%29.96 "Hg10 mi
2:51 AM50 °FClear.No wind89%29.95 "Hg10 mi
1:51 AM53 °FClear.No wind83%29.97 "Hg10 mi
12:51 AM53 °FClear.3 mph83%29.97 "Hg10 mi
11:51 PM
Sep 17
55 °FPassing clouds.5 mph74%29.98 "Hg10 mi
10:51 PM56 °FPassing clouds.5 mph75%29.99 "Hg10 mi
9:51 PM58 °FPassing clouds.5 mph67%29.99 "Hg10 mi
8:51 PM60 °FPassing clouds.6 mph60%29.99 "Hg10 mi
7:51 PM62 °FPassing clouds.6 mph54%29.98 "Hg10 mi
6:51 PM66 °FPassing clouds.6 mph43%29.96 "Hg10 mi
Weather by CustomWeather, © 2014

See weather overviewHow to use our weather pages